| time (UTC) | temp F | wind direction | speed MPH | gust MPH | rain 1hr in | rain 24hr in | rain mn in | humidity % | barometer mb |
| 20260502221639 | 44 | 227 | 10.0 | 14.0 | 0.00 | 0.00 | 0.00 | 80 | 1012.5 |
| 20260502221138 | 44 | 182 | 10.0 | 14.0 | 0.00 | 0.00 | 0.00 | 79 | 1012.5 |
| 20260502220640 | 44 | 207 | 9.0 | 15.0 | 0.00 | 0.00 | 0.00 | 78 | 1012.4 |
| 20260502220138 | 44 | 199 | 9.0 | 15.0 | 0.00 | 0.00 | 0.00 | 77 | 1012.4 |
| 20260502215136 | 44 | 0 | 8.0 | 16.0 | 0.00 | 0.00 | 0.00 | 77 | 1012.5 |
| 20260502214634 | 44 | 207 | 10.0 | 16.0 | 0.00 | 0.00 | 0.00 | 79 | 1012.4 |
| 20260502213634 | 44 | 213 | 11.0 | 16.0 | 0.00 | 0.00 | 0.00 | 77 | 1012.5 |
| 20260502213134 | 44 | 0 | 9.0 | 16.0 | 0.00 | 0.00 | 0.00 | 76 | 1012.5 |
| 20260502212634 | 44 | 213 | 7.0 | 14.0 | 0.00 | 0.00 | 0.00 | 77 | 1012.5 |
| 20260502212135 | 44 | 206 | 4.0 | 11.0 | 0.00 | 0.00 | 0.00 | 76 | 1012.5 |
| 20260502211634 | 44 | 234 | 2.0 | 8.0 | 0.00 | 0.00 | 0.00 | 77 | 1012.5 |
| 20260502211134 | 44 | 248 | 2.0 | 8.0 | 0.00 | 0.00 | 0.00 | 76 | 1012.5 |
| 20260502210134 | 44 | 238 | 3.0 | 10.0 | 0.00 | 0.00 | 0.00 | 76 | 1012.5 |
| 20260502205634 | 44 | 0 | 4.0 | 10.0 | 0.00 | 0.00 | 0.00 | 76 | 1012.5 |
| 20260502205135 | 44 | 247 | 5.0 | 12.0 | 0.00 | 0.00 | 0.00 | 76 | 1012.5 |
| 20260502204634 | 44 | 223 | 7.0 | 16.0 | 0.00 | 0.00 | 0.00 | 75 | 1012.5 |
| 20260502204132 | 44 | 222 | 9.0 | 16.0 | 0.00 | 0.00 | 0.00 | 75 | 1012.4 |
| 20260502203632 | 44 | 219 | 8.0 | 14.0 | 0.00 | 0.00 | 0.00 | 74 | 1012.5 |
| 20260502202633 | 44 | 202 | 5.0 | 10.0 | 0.00 | 0.00 | 0.00 | 74 | 1012.4 |
| 20260502202132 | 44 | 221 | 5.0 | 12.0 | 0.00 | 0.00 | 0.00 | 74 | 1012.4 |
| 20260502201632 | 44 | 211 | 7.0 | 15.0 | 0.00 | 0.00 | 0.00 | 74 | 1012.5 |
| 20260502201132 | 44 | 232 | 7.0 | 15.0 | 0.00 | 0.00 | 0.00 | 74 | 1012.4 |
| 20260502200633 | 45 | 219 | 5.0 | 13.0 | 0.00 | 0.00 | 0.00 | 75 | 1012.5 |
| 20260502200133 | 45 | 161 | 5.0 | 13.0 | 0.00 | 0.00 | 0.00 | 73 | 1012.5 |
| 20260502195132 | 45 | 240 | 9.0 | 18.0 | 0.00 | 0.00 | 0.00 | 73 | 1012.5 |
| 20260502194632 | 45 | 224 | 13.0 | 20.0 | 0.00 | 0.00 | 0.00 | 75 | 1012.5 |
| 20260502194131 | 45 | 216 | 13.0 | 20.0 | 0.00 | 0.00 | 0.00 | 77 | 1012.5 |
| 20260502193121 | 45 | 0 | 10.0 | 18.0 | 0.00 | 0.00 | 0.00 | 75 | 1012.6 |
| 20260502192618 | 46 | 233 | 7.0 | 14.0 | 0.00 | 0.00 | 0.00 | 72 | 1012.6 |
| 20260502192118 | 45 | 228 | 9.0 | 16.0 | 0.00 | 0.00 | 0.00 | 72 | 1012.5 |
| 20260502191617 | 45 | 221 | 12.0 | 18.0 | 0.00 | 0.00 | 0.00 | 74 | 1012.4 |
| 20260502191117 | 45 | 0 | 12.0 | 18.0 | 0.00 | 0.00 | 0.00 | 77 | 1012.4 |
| 20260502190614 | 45 | 222 | 11.0 | 15.0 | 0.00 | 0.00 | 0.00 | 78 | 1012.5 |
| 20260502190112 | 45 | 0 | 11.0 | 15.0 | 0.00 | 0.00 | 0.00 | 77 | 1012.5 |
| 20260502185612 | 45 | 201 | 10.0 | 13.0 | 0.00 | 0.00 | 0.00 | 78 | 1012.4 |
| 20260502185110 | 45 | 0 | 10.0 | 15.0 | 0.00 | 0.00 | 0.00 | 79 | 1012.4 |
| 20260502184610 | 45 | 194 | 10.0 | 15.0 | 0.00 | 0.00 | 0.00 | 77 | 1012.4 |
| 20260502184108 | 45 | 224 | 10.0 | 14.0 | 0.00 | 0.00 | 0.00 | 78 | 1012.3 |
| 20260502183605 | 45 | 219 | 10.0 | 14.0 | 0.00 | 0.00 | 0.00 | 78 | 1012.3 |
| 20260502183106 | 45 | 192 | 10.0 | 14.0 | 0.00 | 0.00 | 0.00 | 77 | 1012.3 |
| 20260502182606 | 44 | 0 | 10.0 | 14.0 | 0.00 | 0.00 | 0.00 | 77 | 1012.4 |
| 20260502182106 | 44 | 197 | 11.0 | 15.0 | 0.00 | 0.00 | 0.00 | 76 | 1012.4 |
| 20260502180558 | 44 | 217 | 13.0 | 17.0 | 0.00 | 0.00 | 0.00 | 75 | 1012.3 |
| 20260502164052 | 45 | 227 | 14.0 | 23.0 | 0.00 | 0.00 | 0.00 | 76 | 1012.3 |
| 20260502163550 | 45 | 198 | 13.0 | 18.0 | 0.00 | 0.00 | 0.00 | 76 | 1012.3 |
| 20260502163050 | 45 | 222 | 13.0 | 20.0 | 0.00 | 0.00 | 0.00 | 77 | 1012.3 |
| 20260502162550 | 44 | 217 | 12.0 | 20.0 | 0.00 | 0.00 | 0.00 | 77 | 1012.3 |
| 20260502162049 | 44 | 178 | 13.0 | 17.0 | 0.00 | 0.00 | 0.00 | 78 | 1012.4 |
| 20260502161049 | 45 | 0 | 12.0 | 18.0 | 0.00 | 0.00 | 0.00 | 79 | 1012.5 |
| 20260502160550 | 44 | 187 | 12.0 | 17.0 | 0.00 | 0.00 | 0.00 | 78 | 1012.5 |
| 20260502151843 | 0 | 0.0 | 0.0 | 0.00 | 0.00 | 0.00 | 1012.7 | ||
| 20260502150740 | 0 | 0.0 | 0.0 | 0.00 | 0.00 | 0.00 | 1012.7 | ||
| 20260502150152 | 0 | 0.0 | 0.0 | 0.00 | 0.00 | 0.00 | 1012.7 | ||
| 20260502130441 | 0 | 0.0 | 0.0 | 0.00 | 0.00 | 0.00 | 1012.8 | ||
| 20260502123746 | 0 | 0.0 | 0.0 | 0.00 | 0.00 | 0.00 | 1012.7 | ||
| 20260502123242 | 0 | 0.0 | 0.0 | 0.00 | 0.00 | 0.00 | 1012.7 | ||
| 20260502122147 | 0 | 0.0 | 0.0 | 0.00 | 0.00 | 0.00 | 1012.7 | ||
| 20260502121647 | 0 | 0.0 | 0.0 | 0.00 | 0.00 | 0.00 | 1012.6 | ||
| 20260502120642 | 0 | 0.0 | 0.0 | 0.00 | 0.00 | 0.00 | 1012.6 | ||
| 20260502115041 | 0 | 0.0 | 0.0 | 0.00 | 0.00 | 0.00 | 1012.7 | ||
| 20260502114450 | 0 | 0.0 | 0.0 | 0.00 | 0.00 | 0.00 | 1012.7 | ||
| 20260502113947 | 0 | 0.0 | 0.0 | 0.00 | 0.00 | 0.00 | 1012.7 | ||
| 20260502113448 | 0 | 0.0 | 0.0 | 0.00 | 0.00 | 0.00 | 1012.6 | ||
| 20260502112946 | 0 | 0.0 | 0.0 | 0.00 | 0.00 | 0.00 | 1012.6 | ||
| 20260502112444 | 0 | 0.0 | 0.0 | 0.00 | 0.00 | 0.00 | 1012.6 | ||
| 20260502111939 | 0 | 0.0 | 0.0 | 0.00 | 0.00 | 0.00 | 1012.4 | ||
| 20260502111349 | 0 | 0.0 | 0.0 | 0.00 | 0.00 | 0.00 | 1012.4 | ||
| 20260502110847 | 0 | 0.0 | 0.0 | 0.00 | 0.00 | 0.00 | 1012.3 | ||
| 20260502110344 | 0 | 0.0 | 0.0 | 0.00 | 0.00 | 0.00 | 1012.3 | ||
| 20260502105244 | 0 | 0.0 | 0.0 | 0.00 | 0.00 | 0.00 | 1012.2 | ||
| 20260502104653 | 0 | 0.0 | 0.0 | 0.00 | 0.00 | 0.00 | 1012.2 | ||
| 20260502103553 | 0 | 0.0 | 0.0 | 0.00 | 0.00 | 0.00 | 1012.2 | ||
| 20260502103047 | 0 | 0.0 | 0.0 | 0.00 | 0.00 | 0.00 | 1012.1 | ||
| 20260502101949 | 0 | 0.0 | 0.0 | 0.00 | 0.00 | 0.00 | 1012.0 | ||
| 20260502101448 | 0 | 0.0 | 0.0 | 0.00 | 0.00 | 0.00 | 1012.0 | ||
| 20260502100941 | 0 | 0.0 | 0.0 | 0.00 | 0.00 | 0.00 | 1011.9 | ||
| 20260502100427 | 0 | 0.0 | 0.0 | 0.00 | 0.00 | 0.00 | 1011.8 | ||
| 20260502091036 | 0 | 0.0 | 0.0 | 0.00 | 0.00 | 0.00 | 1011.4 | ||
| 20260502071151 | 41 | 205 | 7.0 | 10.0 | 0.00 | 0.00 | 0.00 | 91 | 1011.6 |
| 20260502070651 | 41 | 0 | 7.0 | 12.0 | 0.00 | 0.00 | 0.00 | 91 | 1011.7 |
| 20260502070151 | 41 | 0 | 7.0 | 12.0 | 0.00 | 0.00 | 0.00 | 91 | 1011.6 |
| 20260502065151 | 41 | 178 | 7.0 | 11.0 | 0.00 | 0.00 | 0.00 | 91 | 1011.7 |
| 20260502064653 | 41 | 0 | 8.0 | 11.0 | 0.00 | 0.00 | 0.00 | 91 | 1011.7 |
| 20260502064151 | 41 | 200 | 8.0 | 11.0 | 0.00 | 0.00 | 0.00 | 91 | 1011.7 |
| 20260502063651 | 41 | 196 | 7.0 | 11.0 | 0.00 | 0.00 | 0.00 | 91 | 1011.8 |
| 20260502063148 | 41 | 171 | 7.0 | 11.0 | 0.00 | 0.00 | 0.00 | 91 | 1011.8 |
| 20260502062649 | 41 | 0 | 7.0 | 12.0 | 0.00 | 0.00 | 0.00 | 90 | 1011.9 |
| 20260502062147 | 41 | 0 | 8.0 | 14.0 | 0.00 | 0.00 | 0.00 | 90 | 1011.9 |
| 20260502061646 | 42 | 196 | 9.0 | 14.0 | 0.00 | 0.00 | 0.00 | 90 | 1011.8 |
| 20260502061147 | 42 | 0 | 9.0 | 13.0 | 0.00 | 0.00 | 0.00 | 90 | 1011.8 |
| 20260502060647 | 42 | 201 | 9.0 | 13.0 | 0.00 | 0.00 | 0.00 | 90 | 1011.9 |
| 20260502060147 | 42 | 205 | 9.0 | 13.0 | 0.00 | 0.00 | 0.00 | 90 | 1011.8 |
| 20260502055648 | 42 | 170 | 10.0 | 15.0 | 0.00 | 0.00 | 0.00 | 90 | 1011.8 |
| 20260502055147 | 42 | 185 | 10.0 | 15.0 | 0.00 | 0.00 | 0.00 | 89 | 1011.8 |
| 20260502054647 | 42 | 197 | 10.0 | 14.0 | 0.00 | 0.00 | 0.00 | 89 | 1011.8 |
| 20260502054147 | 42 | 205 | 10.0 | 15.0 | 0.00 | 0.00 | 0.00 | 89 | 1011.9 |
| 20260502053647 | 42 | 0 | 11.0 | 15.0 | 0.00 | 0.00 | 0.00 | 88 | 1011.9 |
| 20260502053147 | 42 | 0 | 11.0 | 16.0 | 0.00 | 0.00 | 0.00 | 88 | 1011.9 |
| 20260502052647 | 42 | 188 | 11.0 | 16.0 | 0.00 | 0.00 | 0.00 | 88 | 1012.0 |
| 20260502052147 | 42 | 225 | 11.0 | 16.0 | 0.00 | 0.00 | 0.00 | 88 | 1012.0 |
| 20260502051647 | 42 | 197 | 10.0 | 16.0 | 0.00 | 0.00 | 0.00 | 88 | 1012.0 |
| 20260502051147 | 43 | 205 | 11.0 | 16.0 | 0.00 | 0.00 | 0.00 | 88 | 1012.0 |
| 20260502050647 | 43 | 207 | 12.0 | 16.0 | 0.00 | 0.00 | 0.00 | 88 | 1012.0 |
| 20260502045642 | 43 | 192 | 11.0 | 15.0 | 0.00 | 0.00 | 0.00 | 87 | 1012.0 |
| 20260502045138 | 43 | 204 | 11.0 | 17.0 | 0.00 | 0.00 | 0.00 | 87 | 1012.0 |
| 20260502044639 | 43 | 217 | 10.0 | 17.0 | 0.00 | 0.00 | 0.00 | 87 | 1012.0 |
| 20260502044137 | 43 | 205 | 10.0 | 14.0 | 0.00 | 0.00 | 0.00 | 87 | 1012.0 |
| 20260502043636 | 43 | 224 | 10.0 | 14.0 | 0.00 | 0.00 | 0.00 | 86 | 1012.1 |
| 20260502043137 | 43 | 205 | 10.0 | 14.0 | 0.00 | 0.00 | 0.00 | 86 | 1012.1 |
| 20260502042633 | 43 | 200 | 10.0 | 12.0 | 0.00 | 0.00 | 0.00 | 86 | 1012.0 |
| 20260502042134 | 43 | 199 | 9.0 | 12.0 | 0.00 | 0.00 | 0.00 | 86 | 1012.0 |
| 20260502041631 | 43 | 0 | 9.0 | 12.0 | 0.00 | 0.00 | 0.00 | 86 | 1012.0 |
| 20260502041131 | 43 | 188 | 9.0 | 14.0 | 0.00 | 0.00 | 0.00 | 85 | 1012.0 |
| 20260502040629 | 43 | 217 | 8.0 | 14.0 | 0.00 | 0.00 | 0.00 | 85 | 1012.0 |
| 20260502040126 | 44 | 194 | 8.0 | 11.0 | 0.00 | 0.00 | 0.00 | 85 | 1011.9 |
| 20260502035627 | 44 | 198 | 8.0 | 11.0 | 0.00 | 0.00 | 0.00 | 85 | 1011.9 |
| 20260502035125 | 43 | 219 | 7.0 | 10.0 | 0.00 | 0.00 | 0.00 | 85 | 1012.0 |
| 20260502034624 | 44 | 0 | 6.0 | 9.0 | 0.00 | 0.00 | 0.00 | 85 | 1012.0 |
| 20260502034125 | 43 | 211 | 6.0 | 8.0 | 0.00 | 0.01 | 0.00 | 85 | 1012.0 |
| 20260502032624 | 44 | 0 | 6.0 | 8.0 | 0.00 | 0.01 | 0.00 | 84 | 1011.9 |
| 20260502032126 | 44 | 205 | 6.0 | 8.0 | 0.00 | 0.01 | 0.00 | 84 | 1011.9 |
| 20260502031624 | 44 | 200 | 6.0 | 9.0 | 0.00 | 0.01 | 0.00 | 84 | 1012.0 |
| 20260502030625 | 44 | 197 | 7.0 | 9.0 | 0.00 | 0.01 | 0.00 | 83 | 1012.0 |
| 20260502030125 | 44 | 0 | 7.0 | 10.0 | 0.00 | 0.01 | 0.00 | 83 | 1012.0 |
| 20260502025624 | 44 | 194 | 7.0 | 11.0 | 0.00 | 0.01 | 0.00 | 83 | 1012.1 |
| 20260502025123 | 44 | 197 | 8.0 | 11.0 | 0.00 | 0.01 | 0.00 | 83 | 1012.1 |
| 20260502024623 | 44 | 209 | 9.0 | 11.0 | 0.00 | 0.01 | 0.00 | 82 | 1012.1 |
| 20260502024124 | 44 | 0 | 9.0 | 12.0 | 0.00 | 0.01 | 0.00 | 82 | 1012.1 |
| 20260502023622 | 44 | 180 | 9.0 | 12.0 | 0.00 | 0.01 | 0.00 | 81 | 1012.1 |
| 20260502023117 | 44 | 203 | 9.0 | 12.0 | 0.00 | 0.01 | 0.00 | 81 | 1012.1 |
| 20260502022610 | 44 | 203 | 9.0 | 12.0 | 0.00 | 0.01 | 0.00 | 80 | 1012.2 |
| 20260502022104 | 44 | 0 | 10.0 | 12.0 | 0.00 | 0.01 | 0.00 | 79 | 1012.2 |
| 20260502021558 | 44 | 198 | 10.0 | 13.0 | 0.00 | 0.01 | 0.00 | 79 | 1012.2 |
| 20260502021052 | 44 | 200 | 9.0 | 13.0 | 0.00 | 0.01 | 0.00 | 78 | 1012.2 |
| 20260502020547 | 45 | 197 | 9.0 | 12.0 | 0.00 | 0.01 | 0.00 | 78 | 1012.1 |
| 20260502020043 | 45 | 201 | 9.0 | 11.0 | 0.00 | 0.01 | 0.00 | 78 | 1012.1 |
| 20260502015542 | 45 | 195 | 9.0 | 13.0 | 0.00 | 0.01 | 0.00 | 77 | 1012.2 |
| 20260502015043 | 45 | 202 | 9.0 | 14.0 | 0.00 | 0.01 | 0.00 | 77 | 1012.2 |
| 20260502014543 | 45 | 198 | 10.0 | 14.0 | 0.00 | 0.01 | 0.00 | 76 | 1012.1 |
| 20260502014042 | 45 | 198 | 10.0 | 15.0 | 0.00 | 0.01 | 0.00 | 77 | 1012.1 |
| 20260502013542 | 45 | 0 | 9.0 | 15.0 | 0.00 | 0.01 | 0.00 | 75 | 1012.0 |
| 20260502013043 | 46 | 0 | 8.0 | 12.0 | 0.00 | 0.01 | 0.00 | 75 | 1012.0 |
| 20260502012042 | 46 | 202 | 9.0 | 13.0 | 0.00 | 0.01 | 0.00 | 70 | 1012.0 |
| 20260502011542 | 46 | 205 | 10.0 | 14.0 | 0.00 | 0.01 | 0.00 | 70 | 1012.0 |
| 20260502011042 | 46 | 225 | 10.0 | 16.0 | 0.00 | 0.01 | 0.00 | 70 | 1012.1 |
| 20260502010543 | 46 | 194 | 9.0 | 16.0 | 0.00 | 0.01 | 0.00 | 68 | 1012.0 |
| 20260502005543 | 46 | 221 | 10.0 | 16.0 | 0.00 | 0.01 | 0.00 | 69 | 1012.0 |
| 20260502005043 | 46 | 236 | 10.0 | 16.0 | 0.00 | 0.01 | 0.00 | 70 | 1012.0 |
| 20260502004543 | 46 | 193 | 10.0 | 15.0 | 0.00 | 0.01 | 0.00 | 68 | 1011.9 |
| 20260502004044 | 47 | 219 | 9.0 | 15.0 | 0.00 | 0.01 | 0.00 | 66 | 1011.9 |
| 20260502003536 | 47 | 192 | 4.0 | 15.0 | 0.00 | 0.01 | 0.00 | 61 | 1011.8 |
| 20260502003031 | 48 | 210 | 1.0 | 3.0 | 0.00 | 0.01 | 0.00 | 59 | 1011.7 |
| 20260502002524 | 48 | 218 | 0.0 | 3.0 | 0.00 | 0.01 | 0.00 | 58 | 1011.6 |
| 20260502001514 | 48 | 214 | 0.0 | 4.0 | 0.00 | 0.01 | 0.00 | 57 | 1011.5 |
| 20260502001007 | 48 | 221 | 1.0 | 6.0 | 0.00 | 0.01 | 0.00 | 56 | 1011.5 |
| 20260502000501 | 48 | 214 | 2.0 | 9.0 | 0.00 | 0.01 | 0.00 | 56 | 1011.5 |
| 20260501235448 | 48 | 239 | 6.0 | 15.0 | 0.00 | 0.01 | 0.00 | 53 | 1011.4 |
| 20260501234436 | 49 | 223 | 1.0 | 8.0 | 0.00 | 0.01 | 0.00 | 51 | 1011.3 |
| 20260501233931 | 49 | 225 | 0.0 | 1.0 | 0.00 | 0.01 | 0.00 | 52 | 1011.3 |
| 20260501233424 | 49 | 271 | 0.0 | 7.0 | 0.00 | 0.01 | 0.00 | 52 | 1011.2 |
| 20260501232918 | 49 | 301 | 1.0 | 7.0 | 0.00 | 0.01 | 0.00 | 52 | 1011.2 |
| 20260501232412 | 49 | 222 | 2.0 | 10.0 | 0.00 | 0.01 | 0.00 | 52 | 1011.2 |
| 20260501231906 | 49 | 280 | 4.0 | 10.0 | 0.00 | 0.01 | 0.00 | 51 | 1011.1 |
| 20260501231400 | 49 | 221 | 3.0 | 8.0 | 0.00 | 0.01 | 0.00 | 50 | 1011.1 |
| 20260501230853 | 49 | 0 | 3.0 | 6.0 | 0.00 | 0.01 | 0.00 | 50 | 1011.0 |
| 20260501230348 | 49 | 215 | 2.0 | 8.0 | 0.00 | 0.01 | 0.00 | 50 | 1011.0 |
| 20260501225842 | 49 | 221 | 2.0 | 8.0 | 0.00 | 0.01 | 0.00 | 49 | 1011.0 |
| 20260501224831 | 50 | 248 | 3.0 | 8.0 | 0.00 | 0.01 | 0.00 | 49 | 1010.9 |
| 20260501224324 | 50 | 225 | 1.0 | 6.0 | 0.00 | 0.01 | 0.00 | 49 | 1010.8 |
| 20260501223312 | 50 | 217 | 2.0 | 6.0 | 0.00 | 0.01 | 0.00 | 49 | 1010.8 |
| 20260501222806 | 50 | 232 | 3.0 | 6.0 | 0.00 | 0.01 | 0.00 | 49 | 1010.8 |
| 20260501222300 | 50 | 236 | 4.0 | 9.0 | 0.00 | 0.01 | 0.00 | 49 | 1010.8 |